Tracking 19817 objects as of 19-Aug-2019
HD Live streaming from Space Station
objects crossing your sky now

GEOTAIL

Track GEOTAIL now!
GEOTAIL is classified as:


NORAD ID: 22049
Int'l Code: 1992-044A
Perigee: 48,203.8 km
Apogee: 192,648.6 km
Inclination: 20.3 °
Period: 7,489.0 minutes
Semi major axis: 126797 km
RCS: 3.5 m2 (large)
Launch date: July 24, 1992
Source: Japan (JPN)
Launch site: AIR FORCE EASTERN TEST RANGE (AFETR)

Study the dynamics of the Earth's magnetotail over a wide range of distance
aabbcc
Your satellite tracking list
Your tracking list is empty




NASA's NSSDC Master Catalog

Two Line Element Set (TLE):
1 22049U 92044A   19215.06662851 -.00000848 +00000-0 +00000-0 0  9999
2 22049 020.3187 056.6729 5695901 154.3034 000.7560 00.19228203010938
Source of the keplerian elements: AFSPC